Skip Page Navigation
NASA JPL Caltech
NASA Logo - Jet Propulsion Laboratory + View the NASA Portal
+ Near-Earth Object (NEO) Program
Search JPL
JPL Home Earth Solar System Stars & Galaxies Technology
JPL Solar System Dynamics
BODIES ORBITS EPHEMERIDES TOOLS PHYSICAL DATA DISCOVERY FAQ SITE MAP
JPL Small-Body Database Browser
Search: [ help ]  
(1998 SJ70)
Classification: Apollo [NEO, PHA]          SPK-ID: 3014682
Ephemeris | Orbit Diagram | Orbital Elements | Physical Parameters | Close-Approach Data ]

[ hide orbit diagram ]
Orbit Diagram
Note: Make sure you have Java enabled on your browser to see the applet. This applet is provided as a 3D orbit visualization tool. The applet was implemented using 2-body methods, and hence should not be used for determining accurate long-term trajectories (over several years or decades) or planetary encounter circumstances. For accurate long-term ephemerides, please instead use our Horizons system.
Orbit Viewer

Additional Notes: the orbits shown in the applet are color coded. The planets are white lines, and the asteroid/comet is a blue line. The bright white line indicates the portion of the orbit that is above the ecliptic plane, and the darker portion is below the ecliptic plane. Likewise for the asteroid/comet orbit, the light blue indicates the portion above the ecliptic plane, and the dark blue the portion below the ecliptic plane.

Orbit Viewer applet originally written and kindly provided by Osamu Ajiki (AstroArts), and further modified by Ron Baalke (JPL).


Orbital Elements at Epoch 2456400.5 (2013-Apr-18.0) TDB
Reference: JPL 36 (heliocentric ecliptic J2000)
 Element Value Uncertainty (1-sigma)   Units 
e .7063225913668127 9.0899e-08  
a 2.24004589096018 1.4953e-08 AU
q .6578508724766047 2.0305e-07 AU
i 7.370966003000872 2.4762e-05 deg
node 23.14039685643347 6.2996e-05 deg
peri 245.1483208680749 6.6504e-05 deg
M 149.2307828429863 8.249e-06 deg
tp 2455892.878840455375
(2011-Nov-27.37884046)
2.7742e-05 JED
period 1224.570520603241
3.35
1.2262e-05
3.357e-08
d
yr
n .2939806192808388 2.9436e-09 deg/d
Q 3.822240909443755 2.5515e-08 AU
  Orbit Determination Parameters
   # obs. used (total)      170  
   data-arc span      3721 days (10.19 yr)  
   first obs. used      1998-09-26  
   last obs. used      2008-12-03  
   planetary ephem.      DE405  
   SB-pert. ephem.      SB405-CPV-2  
   condition code      0  
   fit RMS      .57443  
   data source      ORB  
   producer      Otto Matic  
   solution date      2011-Sep-14 19:34:39  

Additional Information
 Earth MOID = .0318707 AU 
 T_jup = 3.244 
[ show covariance matrix ]

Ephemeris | Orbit Diagram | Orbital Elements | Physical Parameters | Close-Approach Data ]

Physical Parameter Table
Parameter Symbol Value Units Sigma Reference Notes
absolute magnitude H 18.306 mag .63457 36 autocmod 2.5a
rotation period rot_per 19.15 h n/a Asteroid Lightcurve DataBase (Rev. 2013-May-01) Result based on less than full coverage, so that the period may be wrong by 30 percent or so.
Published Reference List:
[Skiff, B.A.; Bowell, E.; Koehn, B.W.; Sanborn, J.J.; McLelland, K.P.; Warner, B.D. (2012) Minor Planet Bul. 39, 111-130.]

[ show close-approach data ]
Ephemeris | Orbit Diagram | Orbital Elements | Physical Parameters | Close-Approach Data ]
ABOUT SSD CREDITS/AWARDS PRIVACY/COPYRIGHT GLOSSARY LINKS
FirstGov 2013-May-19 23:18 UT
(server date/time)  
NASA Home Page
Site Manager:   Donald K. Yeomans
Webmaster  Alan B. Chamberlin